Vertical_Velocity
-2 -2 -2 -2 -2 -3 -3 -3 -2 -2 -1 -1 -2 -2 -2 -2 -2 -2 -2 -2 -2 -3 -3 -3 -3 -3 -3 -3 -3 -3 -3 -2 -2 -1 -1 -1 -1 -2 -2 -2 -2 -2 -1 -1 0 0 1 1 1 1 1 1 1 1 1 1 1 1 2 3 2 2 2 3 3 3 3 3 2
-2 -2 -2 -3 -3 -3 -3 -2 -2 -2 -1 -1 -2 -2 -2 -2 -2 -2 -2 -2 -3 -3 -3 -2 -2 -2 -3 -2 -2 -3 -3 -3 -2 -1 -1 -0 -1 -1 -2 -2 -2 -2 -1 -1 -0 0 0 0 0 0 0 1 2 1 1 1 0 0 1 2 2 2 1 1 1 1 2 2 1
-2 -2 -2 -2 -3 -3 -2 -2 -2 -2 -2 -2 -2 -2 -2 -2 -2 -2 -2 -2 -3 -2 -2 -2 -2 -3 -3 -2 -2 -2 -2 -2 -2 -2 -1 -1 -1 -1 -1 -1 -1 -1 -0 0 0 1 1 0 -0 -1 -0 0 1 1 1 0 -0 -0 -0 0 1 0 0 0 -0 -0 0 1 1
-2 -3 -3 -3 -3 -3 -3 -3 -2 -2 -1 -2 -2 -2 -2 -2 -2 -2 -1 -1 -1 -2 -3 -4 -4 -3 -3 -3 -2 -2 -1 -1 -2 -2 -1 -1 -1 -1 -1 -1 -1 -1 -0 0 1 1 1 1 0 -0 -1 -0 1 1 0 -0 -1 -1 -0 -0 -0 -0 -1 -1 -1 -0 0 1 1
-2 -3 -3 -4 -4 -4 -4 -4 -3 -2 -2 -1 -1 -1 -1 -1 -1 -1 -1 -1 -1 -3 -4 -4 -3 -3 -3 -2 -2 -2 -1 -1 -1 -2 -1 -1 -0 -0 -0 -0 -1 -1 -0 0 1 1 2 2 0 -0 -1 -0 0 1 1 -0 -1 -0 0 0 0 -0 -1 -1 -1 -1 0 1 1
-1 -2 -2 -2 -3 -3 -3 -3 -3 -3 -3 -2 -1 -1 -1 -1 -1 -2 -2 -3 -3 -2 -2 -2 -2 -2 -2 -2 -2 -2 -1 -1 -1 -2 -1 -1 -0 0 0 0 0 0 0 1 1 1 2 2 1 -0 -1 -1 -0 0 1 0 -0 -0 0 1 1 0 -0 -1 -2 -1 -1 -0 1
-2 -2 -2 -3 -3 -3 -3 -3 -2 -2 -1 -1 -1 -1 -1 -1 -1 -1 -2 -2 -2 -2 -1 -1 -2 -2 -3 -3 -2 -2 -2 -1 -1 -1 -1 -0 -0 0 -0 -0 0 0 0 1 1 2 2 2 2 1 -0 -1 -1 -1 -0 1 0 -0 0 1 1 1 1 -1 -2 -2 -2 -1 -0
-2 -3 -3 -4 -4 -4 -3 -3 -2 -1 -1 -1 -1 -1 -1 -1 -2 -2 -1 -1 -1 -2 -2 -3 -3 -2 -2 -2 -2 -2 -2 -2 -1 -0 0 0 0 0 0 -0 -0 -0 0 0 1 1 2 3 2 2 0 -1 -1 -1 -1 0 0 0 0 0 1 2 2 1 -0 -1 -2 -2 -1
-2 -2 -2 -3 -3 -3 -3 -3 -2 -2 -2 -1 -1 -1 -1 -2 -2 -2 -2 -1 -1 -2 -2 -2 -2 -2 -2 -2 -2 -2 -2 -2 -1 -0 -0 0 -0 -0 -0 -0 -0 -0 -0 0 0 1 1 2 3 3 2 1 -1 -1 -1 -0 -0 -0 -0 -0 0 1 2 3 2 0 -1 -1 -1
-2 -2 -2 -2 -3 -3 -2 -2 -2 -2 -2 -2 -1 -1 -1 -1 -1 -1 -2 -2 -2 -1 -2 -2 -2 -2 -2 -2 -2 -2 -2 -2 -1 -1 -1 -0 -0 -1 -1 -1 -1 -1 -1 -1 -1 -1 -0 1 2 2 2 2 1 -0 -1 -0 -0 -1 -1 -0 -0 0 1 3 3 1 -1 -2 -2
-2 -2 -3 -3 -3 -3 -2 -2 -2 -1 -1 -2 -1 -1 -1 -1 -1 -1 -1 -1 -2 -2 -2 -2 -2 -2 -2 -2 -2 -2 -1 -1 -1 -1 -1 -0 -0 -1 -1 -1 -2 -2 -2 -2 -2 -2 -2 -1 0 1 2 2 1 0 -1 -1 -1 -1 -1 -0 0 0 0 1 2 1 -1 -3 -4
-2 -2 -2 -3 -3 -3 -2 -2 -2 -1 -1 -2 -1 -1 -0 -0 -1 -1 -1 -1 -1 -1 -2 -2 -2 -2 -2 -2 -1 -1 -1 -1 -1 -1 -1 -1 -1 -1 -1 -1 -1 -1 -2 -2 -2 -3 -3 -2 -2 -1 -0 1 1 -0 -1 -2 -2 -2 -2 -1 -0 -0 -0 -1 -0 -1 -2 -4 -4
-2 -2 -2 -3 -3 -3 -2 -2 -1 -1 -1 -2 -2 -1 -1 -0 -1 -1 -2 -2 -2 -1 -1 -1 -2 -2 -2 -1 -1 -1 -1 -1 -1 -1 -1 -1 -1 -1 -1 -1 -1 -1 -1 -1 -1 -2 -3 -3 -3 -2 -2 -1 -0 -0 -1 -2 -3 -4 -4 -4 -3 -2 -2 -2 -2 -3 -4 -4 -3
-2 -3 -3 -3 -3 -3 -2 -2 -2 -1 -2 -2 -2 -1 -1 -1 -1 -2 -2 -2 -2 -2 -1 -1 -1 -2 -2 -3 -2 -2 -2 -1 -1 -1 -1 -1 -1 -1 -1 -1 -1 -1 -1 -1 -0 -0 -1 -2 -2 -3 -3 -3 -2 -2 -2 -2 -3 -4 -4 -4 -4 -4 -4 -4 -5 -5 -4 -2 -1
-2 -3 -3 -3 -3 -3 -3 -2 -2 -2 -2 -2 -2 -2 -2 -1 -2 -2 -2 -1 -1 -2 -2 -2 -1 -1 -2 -3 -3 -2 -2 -1 -1 -1 -1 -0 0 0 -0 -1 -1 -1 -1 -0 0 0 -0 -1 -2 -3 -4 -4 -5 -4 -4 -3 -3 -3 -3 -3 -3 -4 -6 -7 -7 -4 -0 4 4
-2 -3 -3 -3 -3 -3 -3 -2 -2 -2 -2 -2 -3 -2 -2 -1 -1 -1 -1 -1 -1 -1 -1 -2 -2 -2 -1 -2 -2 -2 -2 -1 -1 -1 -1 -0 0 0 -0 -0 -1 -1 -1 -1 -1 -0 0 -0 -1 -2 -3 -5 -6 -6 -5 -4 -4 -2 -1 -1 -2 -5 -7 -7 -2 3 8 10 7
-2 -3 -3 -3 -3 -3 -3 -3 -2 -2 -2 -2 -2 -2 -2 -1 -1 -1 -1 -2 -2 -1 -1 -1 -2 -2 -2 -1 -2 -2 -2 -2 -2 -2 -2 -2 -1 -1 -1 -1 -1 -1 -2 -2 -2 -2 -1 -1 -1 -1 -2 -4 -5 -5 -5 -5 -4 -2 -0 -1 -3 -5 -4 1 9 13 13 8 4
-2 -3 -3 -3 -3 -3 -3 -3 -2 -2 -2 -2 -2 -2 -2 -2 -1 -1 -1 -2 -2 -2 -2 -1 -2 -3 -3 -3 -3 -3 -4 -4 -4 -3 -3 -3 -2 -1 -1 -1 -1 -1 -2 -3 -3 -3 -3 -2 -1 -1 -2 -3 -3 -4 -4 -4 -2 -1 -1 -3 -5 -3 3 12 18 16 11 3 0
-2 -2 -3 -3 -3 -3 -3 -3 -2 -2 -2 -2 -2 -2 -2 -1 -1 -1 -1 -1 -2 -2 -3 -3 -3 -3 -4 -4 -4 -4 -4 -4 -4 -4 -3 -2 -1 -1 -1 -1 -2 -2 -3 -3 -4 -4 -4 -3 -2 -2 -2 -2 -2 -2 -2 -1 -1 -2 -4 -6 -5 1 10 19 18 13 6 1 -0
-2 -2 -3 -3 -3 -3 -3 -3 -2 -2 -2 -2 -2 -2 -1 -1 -1 -1 -1 -2 -2 -2 -3 -3 -3 -4 -4 -4 -3 -4 -4 -5 -4 -3 -2 -1 -1 -1 -2 -3 -3 -3 -4 -4 -4 -3 -3 -2 -2 -2 -1 -1 -1 -1 -1 -2 -3 -4 -6 -5 -1 6 13 19 14 8 2 -0 0
-2 -3 -3 -3 -3 -3 -3 -3 -2 -2 -2 -2 -2 -2 -2 -1 -1 -1 -2 -2 -2 -2 -2 -3 -3 -4 -3 -3 -3 -3 -4 -4 -4 -3 -2 -0 -1 -2 -3 -4 -4 -4 -4 -3 -3 -2 -2 -1 -1 -0 -0 0 0 -1 -3 -6 -6 -5 -3 -1 3 9 14 16 11 5 1 -0 0
-2 -2 -3 -3 -3 -3 -3 -3 -2 -2 -2 -2 -2 -2 -2 -1 -1 -1 -2 -2 -2 -2 -3 -3 -3 -3 -3 -4 -3 -3 -2 -2 -2 -2 -2 -2 -2 -2 -3 -4 -4 -3 -3 -2 -2 -2 -1 -1 -0 0 -0 -1 -3 -6 -7 -8 -6 -4 -1 1 7 12 15 14 8 3 1 1 -0
-2 -2 -3 -3 -3 -3 -3 -3 -2 -2 -2 -2 -2 -2 -1 -1 -0 -1 -1 -2 -3 -3 -3 -3 -3 -2 -3 -4 -4 -3 -2 -0 0 -0 -1 -3 -3 -3 -3 -3 -3 -3 -2 -2 -2 -3 -3 -3 -3 -3 -4 -6 -8 -9 -8 -5 -4 -3 0 6 13 17 16 12 5 2 1 1 -1
-2 -2 -2 -3 -3 -3 -3 -3 -2 -2 -2 -2 -2 -2 -1 -1 -0 -0 -1 -2 -3 -3 -3 -2 -1 -1 -1 -2 -2 -3 -3 -2 -1 -1 -1 -2 -2 -2 -2 -2 -3 -3 -3 -2 -2 -2 -4 -5 -6 -8 -8 -8 -8 -7 -4 -2 -3 -2 4 15 21 20 15 7 2 2 2 1 -2
-1 -2 -2 -2 -3 -3 -3 -2 -2 -2 -2 -2 -2 -2 -1 -1 -1 -1 -2 -3 -3 -2 -2 -0 0 1 1 0 -1 -3 -4 -4 -4 -3 -2 -0 -0 -1 -2 -3 -3 -3 -2 -2 -1 -1 -2 -3 -5 -6 -6 -6 -6 -4 -3 -2 -5 -1 8 22 22 17 9 2 1 3 5 3 -2
-1 -2 -2 -2 -3 -3 -3 -2 -2 -2 -2 -2 -2 -1 -1 -1 -1 -2 -2 -3 -3 -3 -2 -2 -0 0 0 -0 -2 -3 -3 -4 -4 -3 -2 -1 -1 -1 -2 -3 -3 -3 -2 -1 -0 -0 -0 -0 -1 -2 -3 -4 -5 -4 -3 -4 -6 -3 4 13 11 7 3 1 2 4 5 3 -1
-1 -1 -2 -2 -3 -3 -2 -2 -2 -2 -2 -2 -1 -1 -1 -1 -1 -2 -2 -3 -4 -3 -2 -1 -1 -1 -1 -2 -3 -3 -3 -3 -3 -2 -2 -2 -3 -3 -3 -3 -3 -2 -1 -1 -1 -0 0 0 0 -1 -2 -4 -4 -4 -3 -4 -7 -6 -4 -1 -1 0 2 3 4 4 4 1 -2
-1 -1 -2 -2 -2 -2 -2 -2 -2 -2 -2 -2 -2 -2 -2 -2 -2 -3 -4 -4 -4 -2 -0 1 0 -1 -1 -1 -1 -2 -3 -3 -2 -2 -2 -2 -3 -4 -4 -4 -2 -1 -0 -0 -0 0 0 -0 -1 -2 -2 -2 -1 1 1 -2 -5 -5 -5 -4 -2 1 4 5 4 4 3 -0 -2
-1 -1 -2 -2 -2 -2 -2 -2 -2 -2 -2 -2 -2 -2 -2 -2 -2 -3 -3 -3 -3 -2 -1 -1 -1 -1 -1 -0 0 -0 -1 -3 -3 -2 -1 -1 -2 -3 -3 -3 -2 -1 -0 0 1 0 -1 -3 -3 -3 -2 0 7 11 12 9 1 -3 -4 -2 0 3 5 5 4 3 1 -1 -2
-1 -1 -1 -2 -2 -2 -2 -2 -2 -2 -2 -2 -2 -2 -2 -2 -2 -2 -2 -2 -2 -3 -4 -4 -4 -4 -3 -3 -2 -1 -1 -2 -2 -2 -1 -1 -1 -2 -2 -3 -2 -1 0 1 1 -1 -4 -6 -4 -2 1 5 18 26 29 24 9 0 -3 -1 2 5 6 6 4 1 -1 -2 -2
-0 -1 -1 -2 -2 -2 -2 -2 -2 -2 -2 -2 -2 -2 -2 -2 -2 -2 -2 -3 -3 -3 -3 -3 -3 -3 -3 -3 -2 -2 -1 -1 -2 -2 -2 -1 -1 -2 -2 -2 -2 -1 0 2 1 -2 -6 -6 -4 -1 2 4 17 27 31 24 8 0 -1 2 7 8 7 5 2 -0 -2 -2 -2
-0 -1 -1 -1 -2 -2 -2 -2 -2 -2 -2 -2 -2 -2 -2 -2 -3 -3 -3 -3 -3 -3 -3 -2 -2 -2 -2 -1 -1 -1 -1 -1 -2 -2 -2 -1 -2 -2 -2 -2 -2 -1 0 2 0 -3 -5 -5 -4 -1 3 7 5 6 7 4 -2 -3 2 8 12 11 7 2 -1 -2 -2 -2 -1
-1 -1 -1 -1 -2 -2 -2 -2 -2 -2 -2 -2 -2 -2 -2 -2 -2 -2 -2 -2 -2 -3 -4 -4 -4 -4 -3 -3 -3 -2 -2 -2 -2 -1 -1 -1 -1 -2 -2 -2 -2 -1 0 1 -1 -2 -4 -4 -7 -0 8 11 2 -3 -5 -5 -6 -2 4 12 12 8 3 -0 -2 -2 -2 -2 -1
-1 -1 -1 -2 -2 -2 -2 -2 -2 -2 -2 -2 -2 -2 -3 -3 -2 -2 -1 -1 -2 -3 -4 -5 -5 -5 -5 -5 -5 -4 -3 -1 -1 -1 -1 -1 -1 -1 -1 -2 -1 -0 1 1 -0 -2 -3 -7 -9 2 13 12 2 -0 -0 -2 -4 -2 3 8 5 3 0 -1 -1 -1 -1 -1 -1
-1 -1 -1 -1 -2 -2 -2 -2 -2 -2 -2 -1 -1 -2 -3 -4 -3 -2 -1 -1 -2 -3 -4 -4 -4 -4 -4 -3 -4 -4 -3 -2 -1 -1 -1 -1 -2 -1 -1 -0 0 2 3 3 0 -2 -5 -11 -6 7 17 10 3 2 2 -0 -4 -3 -0 2 1 0 0 -0 -1 -1 -1 -1 -0
-1 -0 -1 -1 -1 -2 -2 -2 -2 -2 -2 -1 -1 -2 -2 -2 -2 -2 -2 -1 -2 -2 -3 -3 -3 -3 -2 -2 -2 -3 -3 -3 -2 -1 -2 -2 -2 -2 -0 1 2 3 4 3 0 -4 -8 -13 -1 14 19 4 2 2 2 -0 -2 -2 -1 -0 1 1 0 -0 -1 -1 -1 -0 0
-1 -0 -1 -1 -1 -2 -2 -2 -2 -2 -2 -2 -2 -2 -2 -2 -2 -2 -2 -1 -1 -1 -2 -2 -3 -2 -2 -2 -2 -3 -3 -3 -3 -2 -2 -3 -3 -2 -0 1 2 3 3 2 -1 -6 -11 -14 2 14 16 -2 -1 1 1 -1 -1 -1 -0 0 1 1 0 -0 -1 -0 0 1 1
-1 -0 -0 -1 -1 -1 -2 -2 -2 -2 -2 -2 -2 -3 -3 -3 -2 -2 -1 -1 -1 -1 -2 -2 -2 -3 -3 -3 -2 -2 -3 -3 -4 -4 -4 -3 -2 -2 -1 -0 1 2 2 1 -2 -7 -12 -12 4 11 8 -4 -1 -0 -0 -1 -1 -0 0 1 1 0 0 0 0 1 1 2 2
-1 -0 -0 -0 -1 -1 -2 -2 -2 -2 -2 -1 -2 -2 -2 -2 -1 -1 -1 -2 -2 -2 -2 -3 -3 -3 -3 -3 -2 -2 -2 -3 -4 -5 -4 -3 -2 -2 -2 -2 -1 1 1 0 -4 -8 -11 -10 8 9 1 -4 -2 -1 -1 -1 -0 1 1 1 -1 -0 0 2 2 2 2 2 2
-1 -1 -0 -0 -0 -1 -1 -2 -2 -2 -2 -2 -2 -2 -2 -2 -1 -1 -1 -2 -2 -2 -2 -2 -3 -3 -4 -3 -3 -2 -2 -2 -4 -4 -4 -3 -2 -2 -2 -3 -1 0 1 -1 -4 -8 -9 -3 8 6 -2 -4 -2 -1 -1 -0 0 1 0 -1 -2 -2 0 3 4 4 3 2 2
-1 -1 -0 -0 -1 -1 -1 -1 -2 -2 -2 -3 -2 -2 -2 -2 -2 -2 -1 -1 -2 -2 -2 -2 -3 -3 -4 -4 -3 -3 -2 -2 -3 -3 -3 -2 -1 -1 -2 -2 -1 -0 0 -2 -4 -7 -7 2 5 2 -2 -2 -2 -2 -1 -1 -1 -1 -2 -3 -2 -1 1 2 3 4 4 3 2
Height
3064 3062 3060 3058 3056 3054 3052 3050 3048 3046 3044 3042 3040 3037 3035 3032 3030 3027 3025 3022 3019 3016 3014 3011 3008 3005 3002 2999 2996 2993 2990 2988 2985 2983 2980 2977 2974 2971 2968 2965 2962 2960 2957 2954 2952 2950 2949 2948 2946 2945 2944 2943 2942 2941 2940 2938 2937 2936 2934 2933 2931 2930 2928 2927 2925 2924 2922 2920 2919
3062 3060 3059 3057 3055 3053 3051 3049 3047 3045 3042 3040 3038 3036 3033 3031 3029 3026 3023 3020 3018 3015 3012 3010 3006 3003 3000 2997 2995 2992 2989 2987 2984 2981 2979 2976 2973 2970 2967 2964 2961 2958 2956 2953 2951 2949 2947 2946 2945 2944 2943 2942 2941 2940 2938 2937 2936 2935 2933 2932 2930 2929 2927 2926 2924 2923 2921 2920 2918
3061 3059 3057 3055 3053 3051 3050 3047 3045 3043 3041 3039 3036 3034 3032 3030 3027 3025 3022 3020 3017 3014 3011 3008 3005 3002 2999 2996 2993 2991 2988 2985 2983 2980 2977 2975 2972 2969 2966 2963 2960 2957 2955 2952 2950 2948 2946 2945 2943 2942 2941 2940 2939 2938 2937 2935 2934 2933 2932 2930 2929 2928 2926 2925 2923 2922 2920 2919 2917
3060 3058 3056 3054 3052 3050 3048 3046 3044 3042 3040 3038 3035 3033 3031 3028 3026 3023 3021 3018 3015 3012 3009 3007 3004 3001 2998 2995 2992 2990 2987 2984 2982 2979 2976 2973 2970 2968 2965 2962 2959 2957 2954 2951 2949 2947 2945 2943 2942 2941 2940 2939 2938 2936 2935 2934 2933 2932 2930 2929 2928 2926 2925 2924 2922 2921 2919 2918 2916
3058 3056 3055 3053 3051 3049 3047 3045 3043 3041 3039 3036 3034 3032 3029 3027 3025 3022 3019 3016 3014 3011 3008 3005 3003 3000 2997 2994 2991 2989 2986 2983 2980 2978 2975 2972 2970 2967 2964 2961 2958 2956 2953 2951 2948 2946 2944 2942 2941 2940 2938 2937 2936 2935 2934 2933 2931 2930 2929 2927 2926 2925 2923 2922 2921 2919 2918 2917 2915
3056 3055 3053 3051 3050 3048 3046 3044 3042 3040 3038 3035 3033 3030 3028 3026 3023 3021 3018 3016 3013 3010 3007 3004 3001 2998 2995 2993 2990 2987 2985 2982 2980 2977 2974 2971 2968 2965 2963 2960 2957 2955 2952 2950 2947 2945 2943 2941 2940 2938 2937 2936 2935 2934 2933 2931 2930 2929 2928 2926 2925 2923 2922 2920 2919 2918 2916 2915 2914
3055 3054 3052 3050 3048 3046 3044 3042 3040 3038 3036 3034 3032 3030 3027 3025 3022 3020 3017 3015 3012 3009 3006 3003 3000 2997 2995 2992 2989 2986 2984 2981 2978 2975 2973 2970 2967 2965 2962 2959 2957 2954 2951 2949 2946 2944 2942 2940 2938 2937 2936 2935 2934 2933 2931 2930 2929 2928 2926 2925 2924 2922 2920 2919 2918 2916 2915 2914 2912
3054 3052 3050 3049 3047 3045 3043 3041 3039 3037 3035 3033 3030 3028 3026 3023 3021 3018 3015 3013 3010 3007 3005 3002 2999 2996 2994 2991 2988 2985 2982 2980 2977 2975 2972 2969 2966 2964 2961 2958 2955 2953 2950 2948 2945 2943 2941 2939 2937 2936 2935 2933 2932 2931 2930 2929 2928 2926 2925 2924 2922 2921 2919 2918 2916 2915 2913 2912 2910
3052 3051 3049 3047 3046 3044 3042 3040 3038 3036 3034 3032 3030 3027 3025 3022 3020 3017 3015 3012 3009 3006 3004 3001 2998 2995 2992 2990 2987 2984 2981 2979 2976 2974 2971 2968 2965 2962 2960 2957 2954 2952 2950 2947 2945 2942 2940 2938 2936 2935 2933 2932 2931 2930 2929 2928 2926 2925 2924 2922 2921 2920 2918 2916 2915 2913 2912 2910 2909
3051 3050 3048 3046 3045 3043 3041 3039 3037 3035 3033 3030 3028 3026 3023 3021 3018 3016 3013 3011 3008 3005 3002 3000 2997 2994 2991 2989 2986 2983 2980 2978 2975 2973 2970 2967 2964 2961 2959 2956 2953 2951 2948 2946 2944 2941 2939 2937 2935 2933 2932 2931 2930 2928 2927 2926 2925 2923 2922 2921 2919 2918 2916 2915 2914 2912 2910 2909 2907
3050 3048 3047 3045 3043 3042 3040 3038 3036 3034 3032 3030 3027 3025 3022 3020 3017 3015 3012 3010 3007 3004 3001 2999 2996 2993 2990 2988 2985 2982 2980 2977 2974 2971 2969 2966 2963 2960 2958 2955 2952 2950 2947 2945 2943 2940 2938 2935 2934 2932 2930 2929 2928 2927 2926 2925 2923 2922 2920 2919 2918 2916 2915 2914 2912 2910 2909 2907 2905
3049 3047 3045 3044 3042 3040 3039 3037 3035 3033 3030 3028 3026 3024 3021 3019 3016 3013 3011 3008 3006 3003 3000 2998 2995 2992 2989 2986 2984 2981 2978 2976 2973 2970 2968 2965 2962 2960 2957 2954 2951 2949 2946 2944 2942 2939 2937 2935 2932 2930 2929 2928 2926 2925 2924 2923 2922 2920 2919 2918 2916 2915 2914 2912 2910 2909 2907 2905 2903
3047 3046 3044 3042 3041 3039 3038 3036 3034 3032 3030 3027 3025 3022 3020 3017 3015 3012 3010 3007 3005 3002 2999 2997 2994 2991 2988 2985 2983 2980 2977 2975 2972 2970 2967 2964 2961 2959 2956 2953 2950 2948 2945 2943 2941 2938 2936 2934 2932 2930 2928 2926 2925 2924 2923 2921 2920 2919 2918 2916 2915 2914 2912 2911 2909 2907 2905 2903 2901
3046 3045 3043 3041 3040 3038 3036 3035 3033 3030 3028 3026 3024 3021 3019 3016 3014 3011 3009 3006 3004 3001 2999 2996 2993 2990 2988 2985 2982 2979 2976 2974 2971 2969 2966 2963 2961 2958 2955 2952 2950 2947 2945 2943 2940 2938 2935 2933 2931 2929 2927 2925 2924 2923 2922 2921 2920 2918 2917 2915 2914 2913 2911 2909 2907 2905 2903 2901 2899
3045 3043 3041 3040 3039 3037 3035 3034 3031 3029 3027 3025 3022 3020 3018 3015 3013 3010 3007 3005 3003 3000 2998 2995 2992 2990 2987 2984 2981 2978 2975 2973 2970 2968 2965 2962 2960 2957 2955 2952 2949 2946 2944 2942 2940 2937 2935 2933 2930 2928 2927 2925 2924 2923 2921 2920 2919 2917 2916 2914 2913 2911 2909 2907 2905 2903 2901 2899 2896
3043 3042 3040 3039 3037 3035 3034 3032 3030 3028 3026 3024 3021 3019 3016 3014 3011 3009 3006 3004 3002 2999 2997 2994 2991 2989 2986 2983 2980 2977 2974 2972 2969 2967 2964 2961 2959 2956 2954 2951 2948 2946 2943 2941 2939 2936 2934 2932 2930 2928 2926 2924 2923 2922 2920 2919 2918 2916 2915 2913 2911 2910 2907 2905 2902 2901 2899 2897 2894
3042 3040 3039 3037 3036 3034 3033 3031 3029 3027 3025 3022 3020 3018 3015 3013 3010 3008 3006 3003 3001 2998 2996 2993 2990 2988 2985 2982 2979 2976 2973 2971 2968 2966 2963 2961 2958 2956 2953 2950 2948 2945 2943 2940 2938 2935 2933 2931 2929 2927 2925 2924 2922 2921 2919 2918 2916 2915 2913 2912 2910 2907 2905 2902 2901 2900 2898 2895 2892
3040 3039 3038 3036 3035 3033 3031 3030 3028 3026 3024 3021 3019 3017 3015 3012 3010 3007 3005 3002 3000 2998 2995 2992 2990 2987 2984 2981 2978 2975 2972 2970 2967 2965 2962 2960 2957 2955 2952 2950 2947 2944 2942 2939 2937 2935 2933 2930 2928 2926 2924 2923 2921 2920 2918 2917 2915 2914 2912 2910 2907 2905 2903 2902 2900 2899 2896 2893 2890
3039 3038 3036 3035 3033 3032 3030 3028 3026 3025 3022 3020 3018 3016 3013 3011 3009 3006 3004 3001 2999 2996 2994 2992 2989 2986 2983 2980 2977 2975 2972 2969 2966 2964 2961 2959 2956 2954 2951 2949 2946 2943 2941 2938 2936 2934 2931 2930 2927 2925 2923 2922 2920 2919 2917 2915 2914 2912 2910 2907 2905 2903 2902 2901 2900 2898 2895 2892 2888
3038 3036 3035 3033 3032 3030 3029 3027 3025 3023 3021 3019 3017 3015 3012 3010 3008 3005 3003 3000 2998 2996 2993 2991 2988 2985 2982 2979 2976 2974 2971 2968 2965 2963 2960 2958 2956 2953 2950 2948 2945 2942 2940 2938 2935 2933 2931 2929 2926 2925 2923 2921 2919 2918 2916 2914 2912 2909 2907 2905 2904 2903 2902 2900 2899 2896 2894 2890 2886
3036 3035 3033 3032 3030 3029 3028 3026 3024 3022 3020 3018 3016 3014 3012 3009 3007 3005 3002 3000 2998 2995 2992 2990 2987 2984 2981 2978 2976 2973 2970 2968 2965 2963 2960 2958 2955 2952 2950 2947 2944 2942 2939 2937 2935 2932 2930 2928 2926 2924 2922 2920 2919 2917 2915 2912 2909 2907 2905 2904 2903 2902 2901 2900 2897 2895 2892 2889 2885
3035 3033 3032 3031 3029 3028 3026 3025 3023 3021 3019 3017 3015 3013 3011 3009 3006 3004 3002 2999 2997 2994 2992 2989 2986 2984 2981 2978 2975 2973 2970 2967 2965 2962 2960 2957 2954 2951 2949 2946 2944 2941 2939 2936 2934 2932 2930 2927 2925 2923 2921 2919 2917 2915 2912 2910 2908 2906 2905 2903 2902 2901 2900 2899 2896 2894 2890 2887 2883
3033 3032 3031 3029 3028 3026 3025 3023 3021 3020 3018 3016 3014 3012 3010 3008 3005 3003 3001 2998 2996 2994 2991 2989 2986 2983 2980 2978 2975 2972 2969 2967 2964 2962 2959 2956 2954 2951 2948 2945 2943 2940 2938 2936 2933 2931 2929 2926 2924 2922 2919 2917 2914 2912 2910 2909 2907 2905 2904 2902 2901 2900 2900 2898 2895 2892 2889 2885 2882
3032 3030 3029 3028 3027 3025 3024 3022 3020 3019 3017 3015 3013 3011 3009 3007 3005 3002 3000 2998 2995 2993 2990 2988 2985 2983 2980 2977 2974 2972 2969 2966 2964 2961 2958 2956 2953 2950 2948 2945 2942 2940 2938 2935 2933 2930 2928 2925 2923 2920 2918 2916 2914 2912 2910 2909 2907 2905 2903 2903 2902 2900 2899 2897 2894 2891 2888 2885 2881
3030 3029 3028 3027 3025 3024 3022 3021 3019 3017 3016 3014 3012 3010 3008 3006 3004 3002 2999 2997 2995 2992 2990 2987 2985 2982 2980 2977 2974 2971 2968 2966 2963 2960 2958 2955 2953 2950 2947 2945 2942 2939 2937 2935 2932 2930 2928 2925 2923 2920 2918 2916 2914 2912 2910 2909 2906 2905 2904 2903 2902 2900 2898 2895 2893 2890 2887 2884 2880
3029 3028 3026 3025 3024 3023 3021 3020 3018 3016 3015 3013 3011 3009 3007 3005 3003 3001 2998 2996 2994 2991 2989 2987 2985 2982 2979 2976 2974 2970 2968 2965 2962 2960 2957 2955 2952 2950 2947 2944 2941 2939 2936 2934 2932 2930 2928 2925 2923 2921 2918 2916 2914 2912 2910 2908 2906 2905 2904 2903 2901 2899 2896 2894 2892 2889 2887 2884 2880
3028 3026 3025 3024 3023 3021 3020 3019 3017 3015 3014 3012 3010 3008 3006 3004 3002 3000 2997 2995 2993 2991 2989 2986 2984 2981 2979 2976 2973 2970 2967 2964 2962 2959 2957 2954 2952 2949 2946 2944 2941 2939 2936 2934 2932 2930 2927 2925 2923 2921 2918 2916 2914 2912 2910 2908 2906 2905 2903 2901 2899 2897 2895 2893 2890 2888 2885 2882 2879
3026 3025 3024 3023 3021 3020 3019 3017 3016 3014 3012 3011 3009 3007 3005 3003 3001 2999 2997 2995 2992 2990 2988 2985 2983 2980 2978 2975 2972 2970 2967 2964 2961 2959 2956 2954 2951 2948 2946 2943 2941 2938 2936 2934 2932 2930 2927 2925 2923 2920 2918 2916 2914 2912 2910 2908 2907 2905 2903 2900 2898 2896 2894 2892 2890 2887 2885 2881 2878
3025 3024 3022 3021 3020 3019 3017 3016 3014 3013 3011 3010 3008 3006 3004 3002 3000 2998 2996 2994 2991 2989 2987 2985 2982 2980 2977 2974 2972 2969 2966 2964 2961 2958 2956 2953 2950 2948 2945 2943 2940 2938 2936 2934 2932 2929 2927 2924 2922 2920 2918 2916 2915 2913 2911 2909 2907 2905 2902 2900 2897 2895 2894 2891 2889 2886 2883 2880 2877
3023 3022 3021 3020 3019 3017 3016 3015 3013 3012 3010 3009 3007 3005 3003 3001 2999 2997 2995 2992 2990 2989 2986 2984 2982 2980 2977 2975 2972 2969 2966 2963 2960 2958 2955 2953 2950 2947 2945 2942 2940 2938 2936 2934 2932 2929 2926 2924 2922 2920 2918 2916 2915 2915 2914 2912 2909 2905 2902 2899 2897 2895 2893 2890 2888 2885 2882 2879 2876
3022 3021 3020 3019 3017 3016 3015 3013 3012 3010 3009 3007 3005 3004 3002 3000 2998 2996 2994 2992 2990 2988 2985 2983 2981 2979 2976 2974 2971 2969 2965 2963 2960 2957 2955 2952 2950 2947 2945 2942 2940 2938 2936 2934 2932 2929 2926 2924 2922 2920 2918 2917 2917 2916 2915 2913 2909 2905 2901 2899 2897 2895 2893 2890 2887 2884 2881 2878 2876
3020 3019 3018 3017 3016 3015 3014 3012 3011 3009 3008 3006 3005 3003 3001 2999 2997 2995 2993 2991 2989 2987 2985 2982 2980 2977 2975 2972 2970 2968 2965 2962 2960 2957 2955 2952 2949 2947 2944 2942 2940 2937 2936 2934 2932 2929 2926 2924 2922 2920 2919 2918 2917 2915 2913 2910 2907 2904 2900 2899 2897 2895 2892 2889 2885 2882 2880 2877 2875
3019 3018 3017 3016 3015 3014 3012 3011 3010 3008 3007 3005 3003 3002 3000 2998 2996 2994 2992 2990 2988 2986 2984 2981 2979 2977 2974 2972 2970 2967 2965 2962 2960 2957 2954 2952 2949 2946 2944 2941 2939 2937 2935 2934 2931 2929 2926 2924 2921 2920 2919 2919 2916 2913 2911 2908 2905 2902 2900 2899 2897 2895 2891 2888 2884 2881 2879 2877 2875
3017 3016 3015 3015 3013 3012 3011 3010 3009 3007 3006 3004 3002 3001 2999 2997 2995 2993 2991 2989 2987 2985 2983 2981 2979 2976 2974 2972 2969 2967 2964 2962 2959 2956 2954 2951 2949 2946 2944 2941 2939 2937 2935 2934 2931 2929 2926 2923 2920 2920 2920 2919 2915 2912 2910 2907 2904 2901 2900 2899 2896 2893 2890 2886 2884 2881 2879 2877 2875
3016 3015 3014 3013 3012 3011 3010 3009 3007 3006 3005 3003 3001 3000 2998 2996 2994 2992 2990 2989 2987 2985 2982 2980 2978 2976 2974 2971 2969 2966 2964 2961 2959 2956 2954 2951 2949 2946 2944 2941 2939 2937 2935 2934 2931 2929 2925 2922 2920 2920 2921 2919 2915 2911 2909 2906 2903 2900 2899 2897 2894 2891 2888 2885 2883 2881 2879 2877 2875
3015 3014 3013 3012 3011 3010 3009 3008 3006 3005 3004 3002 3000 2999 2997 2995 2993 2991 2990 2988 2986 2984 2982 2980 2977 2975 2973 2970 2968 2965 2963 2961 2958 2956 2953 2951 2948 2946 2944 2942 2940 2938 2936 2934 2931 2928 2924 2921 2920 2921 2921 2918 2914 2911 2909 2905 2903 2900 2898 2895 2893 2890 2887 2885 2883 2880 2879 2877 2875
3014 3013 3011 3010 3010 3009 3008 3006 3005 3004 3003 3001 3000 2998 2996 2994 2992 2990 2989 2987 2985 2983 2981 2979 2977 2975 2972 2970 2968 2965 2963 2960 2958 2955 2953 2950 2948 2946 2944 2942 2940 2938 2935 2933 2930 2927 2924 2921 2921 2923 2922 2917 2913 2911 2908 2905 2902 2900 2897 2895 2892 2890 2887 2885 2883 2881 2879 2877 2875
3012 3011 3010 3009 3008 3007 3006 3005 3004 3003 3002 3000 2999 2997 2995 2993 2991 2990 2988 2986 2984 2982 2980 2978 2976 2974 2972 2970 2968 2965 2963 2960 2958 2955 2953 2950 2948 2946 2944 2941 2939 2937 2935 2932 2930 2926 2923 2921 2923 2924 2921 2916 2913 2910 2908 2905 2902 2900 2898 2895 2892 2890 2887 2885 2883 2881 2879 2877 2875
3011 3010 3009 3008 3007 3006 3005 3004 3003 3002 3000 2999 2998 2996 2994 2992 2990 2989 2987 2985 2984 2982 2980 2978 2976 2974 2971 2970 2967 2965 2962 2960 2957 2955 2953 2950 2948 2946 2944 2941 2939 2937 2935 2932 2929 2925 2923 2922 2924 2924 2920 2915 2913 2910 2908 2905 2902 2900 2898 2895 2892 2890 2887 2885 2884 2881 2879 2877 2875
3010 3009 3008 3007 3006 3005 3004 3003 3002 3001 3000 2998 2997 2995 2993 2992 2990 2988 2986 2985 2983 2981 2979 2977 2975 2973 2971 2969 2967 2964 2962 2960 2957 2955 2952 2950 2948 2946 2943 2941 2939 2937 2935 2931 2929 2925 2924 2924 2925 2923 2919 2915 2912 2910 2907 2905 2902 2900 2897 2894 2891 2890 2888 2886 2884 2882 2880 2877 2875
3008 3007 3006 3005 3005 3004 3003 3002 3001 3000 2999 2997 2996 2994 2993 2991 2989 2988 2986 2984 2982 2980 2978 2976 2975 2972 2970 2968 2966 2964 2961 2959 2957 2955 2952 2950 2948 2946 2943 2941 2939 2937 2934 2931 2928 2925 2924 2925 2925 2922 2918 2915 2912 2909 2907 2904 2902 2899 2896 2894 2892 2890 2888 2886 2884 2882 2880 2877 2875